Regional Weather Roundup
Issued by NWS

Home | Current Version | Previous Version | Graphics & Text | Print | Product List | Glossary On
Versions: 1 2 3 4 5 6 7 8 9 10 11 12 13 14 15 16 17 18 19 20 21 22 23 24 25 26 27 28 29 30 31 32 33 34 35 36 37 38 39 40 41 42 43 44 45 46 47 48 49 50
296
ASUS43 KMPX 190710
RWRMN
WEATHER ROUNDUP FOR MINNESOTA
NATIONAL WEATHER SERVICE TWIN CITIES/CHANHASSEN MN
200 AM CDT TUE SEP 19 2017


NOTE: "FAIR" INDICATES FEW OR NO CLOUDS BELOW 12,000 FEET WITH NO
SIGNIFICANT WEATHER AND/OR OBSTRUCTIONS TO VISIBILITY. N/A MEANS
CURRENT SKY AND/OR WEATHER CONDITIONS ARE NOT AVAILABLE.

MNZ060>063-068>070-190800-
   Twin Cities Metro

CITY           SKY/WX    TMP DP  RH WIND       PRES   REMARKS
TWIN CITIES    CLOUDY    59  57  93 SE7       29.93F
ST PAUL        CLOUDY    59  57  93 E9        29.94F
CRYSTAL        CLOUDY    59  54  83 SE5       29.92S
BLAINE         CLOUDY    61  57  88 SE3       29.93F
LAKEVILLE      CLOUDY    55  55 100 E3        29.93F
EDEN PRAIRIE   CLOUDY    60  57  89 E7        29.91F
SOUTH ST PAUL  CLOUDY    59  58  97 CALM      29.94S
LAKE ELMO      CLOUDY    59  55  88 E3        29.96S
$$
MNZ001>005-007-008-013>017-022>024-027-028-190800-
   Northwest Minnesota

CITY           SKY/WX    TMP DP  RH WIND       PRES   REMARKS
BEMIDJI        CLOUDY    54  53  95 SE10      29.91S
HALLOCK        MOCLDY    57  55  94 SE9       29.83F
ROSEAU           N/A     57  54  88 SE5       29.89R
WARROAD        CLOUDY    55  52  88 SE6       29.90R FOG
THIEF RVR FALL CLOUDY    58  56  93 SE8       29.87S
CROOKSTON      MOCLDY    59  57  94 SE9         N/A
FOSSTON        CLOUDY    55  54  94 SE5       29.88S
DETROIT LAKES  CLOUDY    55  55 100 SE12      29.88F FOG
MOORHEAD       CLOUDY    61  57  88 SE13      29.84S
PARK RAPIDS    CLOUDY    55  53  93 SE9       29.91S
MAHNOMEN       CLOUDY    56  55  94 SE10G16   29.87S
$$
MNZ006-009>011-018-025>026-190800-
   North Central Minnesota

CITY           SKY/WX    TMP DP  RH WIND       PRES   REMARKS
BAUDETTE       CLOUDY    54  54 100 SE9       29.92S
FLAG ISLAND    MOCLDY    57  54  88 S13       29.89S
INTL FALLS     CLOUDY    54  51  90 VRB5      29.95R
WASKISH        CLOUDY    54  54 100 SE6       29.92S FOG
BIG FORK       CLOUDY    54  52  94 SE3       29.95S
LONGVILLE      CLOUDY    54  54 100 SE5       29.94R
GRAND RAPIDS   CLOUDY    53  51  93 SE8       29.97R
CRANE LAKE     CLOUDY    54  52  94 CALM      29.99S
ORR            CLOUDY    54  48  82 SE5       29.96R
COOK           CLOUDY    54  50  87 CALM      29.98S
WALKER         CLOUDY    54  52  92 SE6       29.92S
$$
MNZ012-019>021-037-190800-
   Northeast Minnesota

CITY           SKY/WX    TMP DP  RH WIND       PRES   REMARKS
DULUTH         CLOUDY    54  53  97 SE6       29.98S
ELY            CLOUDY    54  48  82 S5        29.99S
HIBBING        CLOUDY    52  49  89 SE5       29.97S
EVELETH        CLOUDY    54  51  90 SE3       29.99S
DULUTH HARBOR  CLOUDY    59  54  82 CALM      29.99R
TWO HARBORS    MOCLDY    57  54  88 CALM      29.98S
SILVER BAY     CLOUDY    55  54  94 CALM      29.99R
GRAND MARAIS     N/A     57  56  96 N3        30.01F
$$
MNZ029>031-032-039>041-046>048-054>057-064-190800-
   West Central Minnesota

CITY           SKY/WX    TMP DP  RH WIND       PRES   REMARKS
FERGUS FALLS   CLOUDY    59  59 100 SE9       29.87S FOG
WHEATON        CLOUDY    61  59  94 SE12      29.85F FOG
MORRIS         FOG       61  59  94 SE12      29.86F VSB 1/4
ALEXANDRIA     FOG       57  57 100 SE10      29.91F VSB 1/2
ELBOW LAKE     CLOUDY    57  57 100 E10       29.87S FOG
WADENA         CLOUDY    54  54 100 SE8       29.91R FOG
GLENWOOD       FOG       57  57 100 E8        29.90F VSB 1/2
APPLETON       FOG       63  61  94 SE8       29.86S VSB 1
BENSON         CLOUDY    61  59  94 S6        29.89S FOG
ORTONVILLE     CLOUDY    63  61  94 NE10G16   29.84F FOG
MADISON        CLOUDY    64  64 100 SE8       29.85F FOG
WILLMAR        FOG       61  61 100 SE7       29.90S VSB 1/2
$$
MNZ033>034-036-042>043-049>051-058-059-190800-
   Central Minnesota

CITY           SKY/WX    TMP DP  RH WIND       PRES   REMARKS
ST CLOUD       CLOUDY    56  56 100 E5        29.92F FOG
PAYNESVILLE    FOG       57  57 100 E7        29.91S VSB 3/4
AITKIN         CLOUDY    54  52  94 SE5       29.94S
PINE RIVER     CLOUDY    52  50  93 SE6       29.97R
BRAINERD       CLOUDY    54  53  97 SE5       29.94S FOG
STAPLES        CLOUDY    54  54 100 SE6       29.92S FOG
LONG PRAIRIE   SNOW      54  54 100 E3        29.92F VSB 1/2
LITTLE FALLS   CLOUDY    54  52  94 E5        29.93R FOG
LITCHFIELD     CLOUDY    61  61 100 SE5       29.91F FOG
BUFFALO        CLOUDY    58  55  92 CALM      29.93F
MAPLE LAKE     CLOUDY    59  58  98 CALM      29.93S
HUTCHINSON     CLOUDY    60  60  99 E5        29.92S FOG
$$
MNZ037-044-045-052-053-190800-
   East Central Minnesota

CITY           SKY/WX    TMP DP  RH WIND       PRES   REMARKS
PRINCETON      CLOUDY    57  55  94 E3        29.93F
MORA           CLOUDY    54  52  94 CALM      29.96F
CAMBRIDGE      CLOUDY    61  55  82 SE5       29.94F
RUSH CITY      CLOUDY    56  54  91 CALM      29.95S
MOOSE LAKE     CLOUDY    54  52  94 CALM      29.95F FOG
HINCKLEY       CLOUDY    55  55 100 CALM      29.96S
CLOQUET        DRIZZLE   54  52  94 CALM      29.98S
MCGREGOR       CLOUDY    54  52  94 CALM      29.96S
$$
MNZ071>073-080-081-089-090-097-098-190800-
   Southwest Minnesota

CITY           SKY/WX    TMP DP  RH WIND       PRES   REMARKS
MONTEVIDEO     FOG       63  63 100 S5        29.88R VSB 1
GRANITE FALLS  CLOUDY    65  64  99 SE6       29.89S FOG
CANBY          CLOUDY    64  64  97 E6        29.86F FOG
MARSHALL       CLOUDY    64  64 100 S5        29.87S FOG
REDWOOD FALLS  CLOUDY    64  62  93 S7        29.88R FOG
OLIVIA         FOG       61  59  94 SE6       29.89R VSB 1/2
PIPESTONE      CLOUDY    64  63  94 S8        29.87S FOG
WINDOM         MOCLDY    64  63  94 S7        29.89F FOG
WORTHINGTON    CLOUDY    64  63  96 S5        29.89S FOG
JACKSON        CLOUDY    63  63 100 S8        29.91S FOG
TRACY          CLOUDY    65  65 100 S7        29.88R FOG
SLAYTON        FOG       63  62  95 SE7       29.89S VSB 1
$$
MNZ065>067-074>077-082>085-091>093-190800-
   South Central Minnesota

CITY           SKY/WX    TMP DP  RH WIND       PRES   REMARKS
MANKATO        CLOUDY    61  59  93 SE7       29.92F
NEW ULM        CLOUDY    61  61 100 SE7       29.90S FOG
ST JAMES       CLOUDY    61  61 100 SE7       29.91F FOG
FAIRMONT       FOG       61  61 100 SE6       29.91F VSB 1/2
GLENCOE        CLOUDY    60  60 100 E6        29.91S
FARIBAULT      CLOUDY    61  59  94 SE5       29.93F
OWATONNA       CLOUDY    61  57  88 SE6       29.93F
WASECA         CLOUDY    59  59 100 SE3       29.94S
ALBERT LEA     CLOUDY    64  63  94 S5        29.94S
$$
MNZ078>079-086>088-094>096-190800-
   Southeast Minnesota

CITY           SKY/WX    TMP DP  RH WIND       PRES   REMARKS
ROCHESTER      CLOUDY    57  56  96 SE6       29.96S
RED WING       CLOUDY    59  55  88 E5        29.94S
STANTON        CLOUDY    60  57  91 CALM      29.93S
DODGE CENTER   CLOUDY    57  55  94 SE3       29.95S
WINONA         CLOUDY    59  57  94 CALM      29.96F
AUSTIN         CLOUDY    61  57  88 CALM      29.94S
PRESTON        PTCLDY    55  54  94 CALM      29.97S
$$
ABBREVIATIONS USED IN REMARKS
   TC - TEMPERATURES IN CELSIUS
  WCI - WIND CHILL INDEX
   HX - HEAT INDEX
  VSB - VISIBILITY
$$




USA.gov is the U.S. government's official web portal to all federal, state and local government web resources and services.